Flag for Israel Weather past 2 weeks in Tel Aviv, Israel

Now
88 °F

Sunny.


Feels Like: 84 °F
Forecast: 64 / 80 °F
Wind: 17 mph from Southeast

Location: Ben Gurion International Airport

Current Time: Mar 27, 2015 at 1:59:21 PM

Latest Report: Mar 27, 2015 at 1:20 PM


Visibility: 10 mi

Pressure: 29.86 "Hg

Humidity: 18%

Dew point: 39 °F

Location of Tel AvivLocation

Historic Weather in Tel Aviv — Graph

°F

Tel Aviv temperature yesterday

Maximum temperature yesterday: 77 °F (at 12:20 PM)
Minimum temperature yesterday: 50 °F (at 5:50 AM)
Average temperature yesterday: 65 °F

Past Weeks' High & Low Weather Summary

 TemperatureHumidityPressure
High86 °F (Mar 27, 12:20 PM)88% (Mar 14, 2:50 AM)30.18 "Hg (Mar 14, 2:50 AM)
Low48 °F (Mar 23, 5:50 AM)19% (Mar 27, 12:20 PM)29.89 "Hg (Mar 27, 5:50 AM)
Average61 °F63%30.05 "Hg
* Reported Mar 12 11:20 AM — Mar 27 12:20 PM, Tel Aviv, Weather by CustomWeather, © 2015

Note: Actual official high and low records may vary slightly from our data, if they occured in-between our weather recording intervals... More about our weather records

Advertising

Tel Aviv weather history for previous 24 hours

 ConditionsComfort  
Time TempWeatherWind HumidityBarometerVisibility
12:20 PM
Fri, Mar 27
86 °FSunny.20 mph19%29.89 "Hg10 mi
11:50 AM84 °FSunny.20 mph20%29.89 "Hg10 mi
11:20 AM82 °FSunny.21 mph21%29.92 "Hg10 mi
10:50 AM82 °FSunny.17 mph21%29.92 "Hg10 mi
10:20 AM82 °FSunny.16 mph20%29.95 "Hg10 mi
9:50 AM81 °FSunny.17 mph21%29.95 "Hg10 mi
9:20 AM79 °FSunny.16 mph23%29.95 "Hg10 mi
8:50 AM77 °FSunny.14 mph24%29.92 "Hg10 mi
8:20 AM75 °FSunny.12 mph25%29.92 "Hg10 mi
7:50 AM72 °FSunny.8 mph29%29.92 "Hg10 mi
7:20 AM70 °FPassing clouds.6 mph31%29.92 "HgN/A
6:20 AM73 °FClear.15 mph23%29.89 "Hg10 mi
5:50 AM73 °FClear.22 mph23%29.89 "Hg10 mi
5:20 AM72 °FClear.9 mph27%29.92 "Hg10 mi
4:50 AM68 °FClear.8 mph35%29.92 "Hg10 mi
4:20 AM59 °FClear.1 mph77%29.92 "Hg10 mi
3:50 AM59 °FClear.3 mph72%29.95 "Hg10 mi
3:20 AM61 °FClear.1 mph68%29.95 "Hg10 mi
1:50 AM61 °FClear.1 mph68%29.95 "Hg10 mi
1:20 AM61 °FClear.1 mph68%29.95 "Hg10 mi
12:50 AM61 °FClear.2 mph68%29.98 "Hg10 mi
12:20 AM61 °FClear.3 mph68%29.98 "Hg10 mi
11:50 PM
Thu, Mar 26
61 °FClear.5 mph68%29.98 "Hg10 mi
11:20 PM63 °FClear.1 mph68%30.01 "Hg10 mi
10:50 PM63 °FClear.1 mph68%30.01 "Hg10 mi
10:20 PM63 °FClear.1 mph68%30.01 "Hg10 mi
9:50 PM64 °FClear.1 mph64%30.01 "Hg10 mi
9:20 PM64 °FClear.3 mph68%30.01 "Hg10 mi
8:50 PM64 °FClear.2 mph68%30.01 "Hg10 mi
8:20 PM66 °FClear.3 mph64%30.01 "Hg10 mi
7:50 PM66 °FClear.3 mph60%30.01 "Hg10 mi
7:20 PM64 °FClear.2 mph64%30.01 "Hg10 mi
6:50 PM68 °FClear.3 mph56%30.01 "Hg10 mi
6:20 PM68 °FClear.3 mph56%30.01 "Hg10 mi
5:50 PM70 °FSunny.6 mph53%30.01 "Hg10 mi
5:20 PM72 °FSunny.6 mph47%30.01 "Hg10 mi
4:50 PM72 °FSunny.8 mph50%30.01 "Hg10 mi
4:20 PM72 °FSunny.10 mph50%30.01 "Hg10 mi
3:50 PM75 °FSunny.12 mph39%30.01 "Hg10 mi
3:20 PM75 °FSunny.13 mph39%30.01 "Hg10 mi
2:50 PM75 °FSunny.13 mph39%30.01 "Hg10 mi
2:20 PM75 °FSunny.12 mph41%30.01 "Hg10 mi
1:50 PM77 °FSunny.14 mph32%30.01 "Hg10 mi
1:20 PM77 °FSunny.12 mph32%30.01 "Hg10 mi
Weather by CustomWeather, © 2015

See weather overviewHow to use our weather pages